Temp
72 72 72 72 71 72 73 74 74 74 74 74 74 74 74 74 74 74 74 73 71 69 69 69 70 69 73 69 71 72 74 74 74 74 74 74 73 73 73 72 71 71 71 71 70 70 70 70 70 71 71 71 70 66 67 66 66 66 65 66 67 64
72 72 72 72 72 72 72 73 70 71 72 73 73 74 72 72 74 70 74 70 68 70 67 67 68 73 69 71 71 72 74 74 74 74 73 73 73 73 72 72 71 71 71 70 71 62 62 66 69 70 71 69 63 62 66 66 66 66 66 65 65 66
71 71 72 72 71 71 71 70 69 70 71 73 74 72 70 71 68 68 68 68 68 67 66 67 67 70 69 72 70 72 73 74 74 74 73 73 73 72 72 71 71 71 70 70 64 60 60 60 60 68 67 63 61 62 64 65 65 66 66 65 65 70
71 71 71 70 70 70 70 70 69 69 69 69 69 69 68 68 68 67 67 66 66 67 66 65 73 75 74 69 69 71 73 74 74 74 73 72 73 72 72 72 71 71 69 67 61 62 61 60 61 61 61 61 61 62 64 65 65 65 65 68 65 71
70 70 70 70 70 70 70 70 69 68 68 67 67 66 66 66 67 67 66 66 66 66 65 64 64 66 66 66 66 67 68 67 68 68 72 66 67 68 68 66 66 66 62 63 63 62 61 61 61 62 62 61 63 62 64 65 65 64 65 66 66 71
69 70 70 70 70 71 70 69 68 67 67 67 66 65 65 65 65 66 66 67 67 65 64 64 63 63 65 65 66 66 65 65 66 66 67 66 66 65 64 66 66 65 63 61 62 62 62 63 63 62 62 62 62 62 63 64 64 65 65 65 67 72
68 69 70 71 70 71 69 69 68 67 67 66 65 65 64 64 64 66 67 68 66 66 65 64 63 63 64 65 66 66 65 65 65 65 66 66 65 65 65 65 64 65 63 62 62 62 62 62 62 63 63 63 63 63 63 64 65 65 65 65 68 72
69 68 68 70 69 69 68 68 68 70 67 68 65 64 63 63 64 65 67 67 67 66 65 64 64 63 64 63 65 66 65 65 65 65 65 66 65 64 65 65 64 63 64 63 63 63 62 64 62 62 64 62 62 62 64 64 65 65 65 65 67 71
70 69 68 69 68 68 67 67 67 67 66 70 64 64 63 64 64 64 65 67 67 65 65 64 63 63 63 64 64 65 64 64 64 65 65 65 64 64 65 65 64 64 63 62 62 63 63 64 62 62 62 63 62 62 63 64 64 64 64 64 66 68
70 70 69 69 68 67 67 67 67 66 66 69 64 64 64 63 64 65 64 65 66 65 65 64 63 63 63 63 64 64 64 63 63 63 65 63 64 64 64 65 64 64 64 63 63 63 64 64 65 64 63 63 63 64 64 64 64 64 65 65 66 67
71 71 70 69 68 67 67 67 67 66 67 66 65 65 64 63 63 64 64 65 65 65 65 63 63 63 62 63 62 62 62 62 62 63 64 63 63 64 64 65 64 64 63 62 64 64 64 65 64 65 64 64 63 63 64 65 64 65 65 65 65 65
71 71 70 69 69 67 68 67 67 66 65 65 65 64 63 63 65 63 64 64 64 64 65 63 63 63 63 63 62 62 61 62 61 62 63 63 63 63 64 64 65 65 63 63 63 63 62 63 64 65 66 65 63 63 63 64 65 65 65 64 65 65
71 70 69 68 68 67 67 68 66 65 65 66 65 64 62 63 63 63 63 63 65 66 65 64 63 63 65 62 62 62 62 62 62 61 62 63 64 63 62 62 62 63 62 62 62 63 64 62 61 62 63 65 64 65 65 65 65 65 64 65 64 65
69 69 68 68 67 67 67 66 66 65 66 64 64 63 63 62 63 63 64 63 65 67 65 64 63 62 63 61 61 61 61 61 62 63 62 62 63 63 62 62 62 62 64 62 62 61 61 61 61 62 63 64 63 63 64 65 64 65 64 64 65 64
69 68 68 67 67 66 65 66 65 63 63 63 64 62 61 62 62 62 64 63 64 65 65 65 64 63 62 62 61 61 61 62 63 62 61 61 62 61 61 61 61 62 60 60 61 62 61 61 60 62 62 63 64 64 63 64 65 65 65 64 64 64
67 67 67 67 66 66 65 64 64 65 62 61 61 62 61 62 62 62 63 63 64 64 64 64 63 62 61 61 61 61 62 62 62 61 61 61 61 61 60 61 62 62 61 61 62 61 61 61 61 62 62 62 62 63 63 62 64 65 65 65 64 63
66 66 66 66 65 64 63 63 63 62 62 61 61 60 61 62 64 64 63 63 64 64 64 63 63 62 61 61 61 60 61 62 62 62 60 60 60 61 61 63 61 62 61 61 61 61 61 61 62 62 62 62 62 62 62 63 62 62 66 63 63 64
66 66 65 65 64 63 63 62 61 62 63 61 60 61 62 63 63 63 63 63 62 64 63 62 62 62 61 63 62 61 61 61 61 61 61 61 60 61 62 61 61 61 61 60 61 61 60 60 62 62 61 61 61 61 62 63 63 64 63 63 62 63
66 64 64 64 63 61 60 60 60 61 60 59 59 60 61 61 61 62 61 62 63 64 64 61 62 62 61 62 62 62 61 60 61 61 62 62 61 62 62 60 60 60 61 61 60 60 61 61 61 61 61 61 61 61 61 62 64 64 63 62 64 65
64 64 63 62 62 60 60 60 60 59 60 60 59 61 59 59 59 60 62 61 60 60 63 62 61 61 61 61 61 61 60 61 62 62 62 62 62 62 61 60 60 60 59 61 62 61 61 61 60 60 60 61 61 62 62 62 63 64 63 62 62 61
63 64 64 62 61 61 58 57 58 58 58 57 60 59 59 59 59 60 60 61 60 60 60 61 62 60 60 64 62 61 61 62 62 61 62 62 62 61 60 60 60 60 60 59 60 61 61 60 60 58 58 58 60 61 63 61 62 62 63 63 62 63
63 63 63 63 63 61 59 59 58 58 57 58 59 59 59 58 59 60 58 58 58 57 58 59 61 60 61 60 60 61 62 62 63 62 62 62 62 63 62 61 60 59 60 59 60 62 61 60 56 56 56 56 56 58 60 60 61 62 63 63 63 64
63 63 62 63 63 61 57 59 60 57 59 56 57 58 58 59 59 59 57 57 57 58 57 57 58 60 60 59 59 60 61 62 62 63 62 62 62 61 61 61 59 59 58 59 60 61 58 58 56 56 56 57 53 56 57 58 60 62 62 63 62 63
62 62 61 63 63 60 60 59 59 59 57 57 59 58 57 57 58 59 58 58 58 58 58 57 57 59 58 58 58 58 60 62 62 62 61 61 60 60 60 61 59 58 57 56 57 58 60 59 57 56 56 54 54 53 52 56 55 58 61 62 62 63
62 62 61 62 61 61 61 59 59 59 59 60 59 57 57 56 57 59 59 58 57 57 58 58 57 57 58 56 57 59 61 61 62 60 60 60 60 59 59 59 58 57 57 57 57 59 60 61 59 59 56 53 51 50 51 53 53 56 59 60 60 62
60 60 61 60 61 62 61 60 59 58 57 55 57 55 54 56 56 57 57 56 56 56 58 57 56 57 58 58 56 56 56 58 58 58 58 58 59 58 57 58 58 58 57 57 58 58 59 60 59 58 57 56 54 52 54 57 56 55 57 59 59 61
61 60 60 60 61 63 60 60 60 60 58 57 56 54 53 53 55 55 55 56 55 56 56 58 56 56 57 58 57 57 57 57 57 57 59 57 57 57 59 59 59 58 57 57 57 57 59 58 58 57 58 58 60 61 59 56 53 53 54 55 57 59
61 61 60 61 61 62 61 58 57 56 57 56 56 56 55 55 54 55 55 55 55 55 55 56 57 56 57 58 58 57 57 57 58 58 58 56 55 56 58 59 58 57 57 57 58 58 58 58 56 55 57 56 58 58 58 57 54 55 51 52 54 56
60 60 59 60 61 60 62 59 59 58 56 56 56 56 55 55 55 54 55 54 55 54 55 54 54 56 55 58 59 57 57 57 57 57 59 57 56 56 55 55 55 55 55 56 57 56 56 55 55 53 54 55 56 56 56 56 56 56 53 50 52 53
59 59 59 59 60 59 60 60 58 57 57 55 56 54 54 54 53 53 54 53 53 54 54 54 54 53 55 55 55 56 56 56 56 57 57 55 54 54 54 54 53 54 55 55 54 55 54 53 53 54 55 56 54 54 54 55 54 53 55 54 52 54
58 59 59 58 59 59 59 60 59 59 59 58 56 55 55 53 53 54 54 53 53 53 53 53 54 53 53 54 54 56 55 54 56 57 55 54 54 53 53 53 53 54 54 54 54 54 54 53 53 53 54 55 54 53 53 51 53 53 52 51 52 52
58 59 58 58 58 59 59 59 59 59 59 58 57 57 55 54 53 53 52 52 52 52 53 53 53 53 53 53 54 53 53 53 54 53 53 53 53 53 53 53 53 53 52 52 52 54 52 52 52 52 52 53 54 55 55 54 54 53 54 53 51 52
58 59 59 59 58 58 57 58 59 59 58 58 58 56 56 55 53 53 52 51 51 52 52 53 53 54 52 52 54 54 54 54 54 55 53 53 52 53 54 53 53 52 52 51 50 51 50 49 50 51 50 50 50 52 52 52 53 52 51 50 51 48
59 60 61 60 59 58 58 58 59 59 58 59 57 57 56 58 56 54 54 52 52 52 52 52 52 53 54 53 54 55 54 53 53 52 53 53 53 53 53 53 53 52 52 50 51 51 50 50 50 49 49 51 51 50 50 50 49 50 48 48 46 47
60 60 60 59 59 58 58 59 59 59 60 59 59 59 58 58 56 54 53 52 52 51 52 52 52 53 53 53 52 52 52 52 52 53 53 54 55 53 53 54 53 52 52 51 51 51 50 51 52 50 50 50 51 50 48 49 50 50 50 50 50 48
60 59 59 58 59 59 58 60 58 59 59 60 60 60 59 58 56 54 54 54 53 52 53 52 51 53 52 53 52 52 53 51 51 52 52 52 52 53 52 52 51 53 53 53 52 51 49 50 49 49 49 48 51 48 48 49 50 49 50 49 49 46
58 60 60 59 57 58 58 59 58 59 58 59 59 59 60 59 58 57 55 54 54 53 52 52 53 54 52 53 52 52 52 51 51 52 52 52 52 51 51 52 52 51 51 50 52 50 49 50 47 48 48 49 49 49 48 48 49 49 49 48 48 47
MSLP
1013.43 1013.63 1013.79 1013.91 1013.99 1013.99 1014.03 1014.07 1014.15 1014.23 1014.39 1014.55 1014.75 1014.91 1015.07 1015.15 1015.23 1015.31 1015.43 1015.59 1015.75 1015.87 1015.99 1016.03 1016.11 1016.23 1016.35 1016.55 1016.63 1016.67 1016.71 1016.79 1016.79 1016.75 1016.75 1016.71 1016.75 1016.83 1016.87 1016.91 1016.99 1016.99 1017.03 1017.15 1017.27 1017.43 1017.55 1017.63 1017.67 1017.67 1017.59 1017.55 1017.51 1017.51 1017.63 1017.75 1017.91 1017.99 1018.11 1018.15 1018.19 1018.31
1013.55 1013.79 1013.91 1014.03 1014.03 1014.07 1014.07 1014.15 1014.31 1014.43 1014.59 1014.75 1014.91 1015.07 1015.19 1015.27 1015.35 1015.51 1015.59 1015.83 1015.99 1016.07 1016.15 1016.19 1016.23 1016.35 1016.51 1016.55 1016.67 1016.71 1016.71 1016.75 1016.79 1016.75 1016.75 1016.75 1016.83 1016.91 1016.99 1017.07 1017.11 1017.07 1017.07 1017.11 1017.23 1017.47 1017.63 1017.67 1017.75 1017.75 1017.75 1017.75 1017.71 1017.71 1017.67 1017.79 1017.95 1018.11 1018.19 1018.27 1018.31 1018.39
1013.67 1013.83 1013.99 1014.03 1014.11 1014.11 1014.19 1014.31 1014.47 1014.63 1014.75 1014.87 1014.99 1015.19 1015.31 1015.43 1015.59 1015.71 1015.91 1016.07 1016.19 1016.23 1016.27 1016.31 1016.39 1016.51 1016.59 1016.67 1016.75 1016.75 1016.75 1016.75 1016.75 1016.75 1016.75 1016.83 1016.91 1017.03 1017.11 1017.15 1017.19 1017.15 1017.11 1017.11 1017.23 1017.47 1017.63 1017.71 1017.79 1017.87 1017.83 1017.91 1017.91 1017.83 1017.79 1017.87 1018.03 1018.15 1018.27 1018.31 1018.39 1018.35
1013.79 1013.91 1014.03 1014.15 1014.23 1014.31 1014.39 1014.47 1014.67 1014.83 1014.95 1015.07 1015.19 1015.35 1015.51 1015.59 1015.71 1015.87 1016.07 1016.19 1016.31 1016.35 1016.39 1016.47 1016.39 1016.43 1016.55 1016.75 1016.79 1016.83 1016.83 1016.83 1016.83 1016.83 1016.87 1016.95 1017.03 1017.11 1017.15 1017.19 1017.19 1017.19 1017.15 1017.15 1017.27 1017.47 1017.59 1017.67 1017.75 1017.95 1017.91 1017.99 1017.99 1017.95 1017.91 1017.95 1018.03 1018.15 1018.27 1018.31 1018.39 1018.35
1013.79 1013.91 1014.07 1014.27 1014.39 1014.47 1014.51 1014.67 1014.79 1014.95 1015.07 1015.23 1015.39 1015.55 1015.67 1015.79 1015.87 1015.99 1016.11 1016.23 1016.35 1016.47 1016.59 1016.67 1016.71 1016.67 1016.83 1016.91 1016.95 1016.99 1016.95 1016.95 1016.99 1017.07 1017.07 1017.27 1017.27 1017.27 1017.23 1017.27 1017.27 1017.27 1017.31 1017.31 1017.35 1017.47 1017.63 1017.71 1017.79 1018.03 1017.99 1018.07 1017.99 1018.03 1017.99 1017.99 1018.07 1018.15 1018.27 1018.27 1018.31 1018.31
1013.83 1013.95 1014.11 1014.23 1014.39 1014.47 1014.59 1014.79 1014.91 1015.03 1015.19 1015.31 1015.43 1015.67 1015.83 1015.95 1016.03 1016.11 1016.23 1016.31 1016.43 1016.63 1016.75 1016.83 1016.91 1016.99 1017.03 1017.03 1017.07 1017.11 1017.07 1017.07 1017.15 1017.31 1017.27 1017.43 1017.39 1017.35 1017.35 1017.31 1017.39 1017.47 1017.47 1017.47 1017.47 1017.55 1017.63 1017.75 1017.83 1017.99 1018.07 1018.07 1017.99 1018.03 1018.11 1018.11 1018.11 1018.19 1018.23 1018.27 1018.31 1018.31
1013.87 1014.03 1014.19 1014.23 1014.43 1014.47 1014.63 1014.71 1014.83 1014.99 1015.19 1015.39 1015.43 1015.67 1015.91 1015.99 1016.11 1016.19 1016.27 1016.39 1016.63 1016.79 1016.83 1016.95 1017.07 1017.11 1017.11 1017.07 1017.15 1017.15 1017.15 1017.19 1017.31 1017.43 1017.39 1017.43 1017.43 1017.35 1017.31 1017.39 1017.51 1017.59 1017.59 1017.59 1017.59 1017.59 1017.63 1017.71 1017.79 1017.87 1018.07 1018.07 1018.07 1018.11 1018.15 1018.19 1018.15 1018.19 1018.23 1018.27 1018.31 1018.35
1013.71 1013.91 1014.15 1014.23 1014.39 1014.55 1014.63 1014.71 1014.87 1014.91 1015.19 1015.31 1015.47 1015.71 1015.91 1016.07 1016.15 1016.27 1016.35 1016.47 1016.63 1016.83 1016.91 1016.99 1017.07 1017.15 1017.11 1017.11 1017.15 1017.15 1017.15 1017.31 1017.47 1017.51 1017.43 1017.39 1017.51 1017.51 1017.47 1017.51 1017.59 1017.67 1017.71 1017.75 1017.79 1017.79 1017.75 1017.75 1017.79 1017.83 1018.03 1018.11 1018.15 1018.15 1018.19 1018.19 1018.19 1018.19 1018.23 1018.31 1018.31 1018.31
1013.51 1013.75 1013.99 1014.11 1014.39 1014.51 1014.63 1014.75 1014.91 1015.03 1015.27 1015.27 1015.55 1015.71 1015.91 1016.07 1016.23 1016.31 1016.39 1016.51 1016.67 1016.91 1016.95 1016.99 1017.03 1017.07 1017.07 1017.11 1017.11 1017.15 1017.23 1017.47 1017.55 1017.55 1017.51 1017.63 1017.63 1017.71 1017.75 1017.71 1017.75 1017.79 1017.83 1017.87 1017.91 1017.95 1017.87 1017.79 1017.75 1017.79 1017.91 1018.11 1018.15 1018.15 1018.19 1018.23 1018.27 1018.31 1018.35 1018.31 1018.31 1018.31
1013.39 1013.59 1013.83 1014.03 1014.27 1014.51 1014.67 1014.87 1014.95 1015.11 1015.27 1015.35 1015.63 1015.71 1015.87 1016.11 1016.23 1016.35 1016.55 1016.59 1016.67 1016.75 1016.87 1016.95 1017.03 1017.07 1017.07 1017.11 1017.11 1017.11 1017.39 1017.59 1017.63 1017.63 1017.63 1017.79 1017.71 1017.75 1017.79 1017.83 1017.83 1017.91 1017.99 1017.99 1018.03 1018.03 1017.95 1017.87 1017.75 1017.67 1017.75 1017.99 1018.11 1018.07 1018.11 1018.19 1018.27 1018.31 1018.31 1018.35 1018.35 1018.39
1013.15 1013.39 1013.67 1013.99 1014.23 1014.47 1014.63 1014.79 1014.91 1015.07 1015.23 1015.43 1015.59 1015.71 1015.87 1016.07 1016.27 1016.43 1016.51 1016.59 1016.63 1016.67 1016.75 1016.91 1017.03 1017.11 1017.15 1017.11 1017.27 1017.55 1017.71 1017.67 1017.71 1017.75 1017.71 1017.79 1017.75 1017.71 1017.75 1017.79 1017.91 1017.99 1018.07 1018.11 1018.07 1018.03 1018.03 1018.03 1017.83 1017.71 1017.67 1017.87 1017.95 1018.07 1018.15 1018.15 1018.19 1018.27 1018.35 1018.35 1018.39 1018.47
1012.99 1013.23 1013.63 1013.99 1014.19 1014.47 1014.59 1014.71 1014.83 1015.03 1015.27 1015.47 1015.63 1015.79 1015.95 1016.11 1016.31 1016.47 1016.51 1016.59 1016.63 1016.71 1016.79 1016.91 1017.03 1017.15 1017.11 1017.19 1017.55 1017.67 1017.75 1017.75 1017.79 1017.75 1017.75 1017.75 1017.79 1017.79 1017.83 1017.87 1017.95 1017.99 1018.07 1018.07 1018.07 1018.07 1018.07 1018.11 1017.95 1017.83 1017.75 1017.83 1017.87 1018.15 1018.19 1018.23 1018.27 1018.31 1018.43 1018.47 1018.47 1018.55
1012.95 1013.31 1013.67 1013.99 1014.19 1014.35 1014.47 1014.63 1014.87 1015.11 1015.35 1015.59 1015.75 1015.91 1016.03 1016.19 1016.35 1016.47 1016.51 1016.59 1016.71 1016.79 1016.83 1016.91 1016.99 1017.03 1017.03 1017.35 1017.55 1017.63 1017.67 1017.75 1017.75 1017.71 1017.75 1017.79 1017.83 1017.87 1017.91 1017.95 1018.03 1018.07 1018.11 1018.11 1018.11 1018.11 1018.07 1018.03 1017.95 1017.83 1017.79 1017.79 1017.91 1018.07 1018.11 1018.19 1018.23 1018.31 1018.43 1018.51 1018.59 1018.63
1013.07 1013.43 1013.75 1013.99 1014.23 1014.39 1014.59 1014.75 1014.95 1015.23 1015.39 1015.63 1015.87 1016.03 1016.11 1016.19 1016.31 1016.43 1016.51 1016.67 1016.83 1016.83 1016.87 1016.91 1016.99 1017.07 1017.11 1017.39 1017.51 1017.59 1017.71 1017.71 1017.67 1017.67 1017.71 1017.75 1017.91 1017.95 1017.99 1017.99 1018.07 1018.07 1018.11 1018.15 1018.15 1018.15 1018.07 1018.03 1018.07 1017.95 1017.91 1017.95 1017.95 1018.03 1018.07 1018.19 1018.23 1018.31 1018.39 1018.51 1018.55 1018.63
1013.15 1013.55 1013.87 1014.15 1014.35 1014.59 1014.75 1014.91 1015.15 1015.39 1015.55 1015.67 1015.83 1016.03 1016.11 1016.19 1016.31 1016.39 1016.47 1016.63 1016.95 1016.91 1016.95 1016.87 1016.91 1017.03 1017.27 1017.35 1017.51 1017.63 1017.71 1017.67 1017.63 1017.67 1017.75 1017.79 1017.87 1017.95 1017.99 1017.99 1017.99 1018.07 1018.11 1018.15 1018.23 1018.11 1018.07 1018.15 1018.23 1018.27 1018.23 1018.07 1018.07 1018.03 1018.11 1018.19 1018.27 1018.35 1018.39 1018.47 1018.59 1018.67
1013.31 1013.67 1013.95 1014.19 1014.47 1014.75 1014.99 1015.15 1015.35 1015.51 1015.67 1015.75 1015.83 1015.99 1016.11 1016.19 1016.31 1016.35 1016.43 1016.59 1016.83 1017.07 1017.07 1017.03 1016.95 1017.11 1017.59 1017.59 1017.59 1017.71 1017.75 1017.71 1017.67 1017.71 1017.83 1017.87 1017.87 1017.99 1018.03 1018.07 1018.03 1018.03 1018.15 1018.27 1018.23 1018.35 1018.31 1018.31 1018.35 1018.39 1018.35 1018.19 1018.23 1018.23 1018.27 1018.27 1018.31 1018.35 1018.35 1018.47 1018.63 1018.75
1013.51 1013.79 1014.03 1014.31 1014.67 1014.99 1015.23 1015.39 1015.47 1015.59 1015.71 1015.79 1015.87 1015.99 1016.11 1016.19 1016.27 1016.35 1016.47 1016.59 1016.67 1016.91 1016.99 1016.91 1016.91 1017.23 1017.55 1017.75 1017.87 1017.83 1017.83 1017.83 1017.79 1017.83 1017.91 1017.91 1017.87 1017.83 1017.95 1018.15 1018.27 1018.31 1018.39 1018.43 1018.35 1018.47 1018.51 1018.47 1018.51 1018.59 1018.51 1018.47 1018.43 1018.35 1018.35 1018.35 1018.35 1018.35 1018.39 1018.51 1018.59 1018.71
1013.63 1013.91 1014.11 1014.39 1014.75 1015.11 1015.35 1015.47 1015.55 1015.67 1015.75 1015.87 1015.99 1016.07 1016.15 1016.23 1016.35 1016.47 1016.55 1016.55 1016.63 1016.67 1016.75 1016.79 1016.95 1017.23 1017.47 1017.59 1017.71 1017.83 1017.95 1017.95 1017.99 1017.95 1017.99 1017.95 1017.83 1017.79 1017.95 1018.23 1018.59 1018.43 1018.43 1018.47 1018.47 1018.43 1018.63 1018.63 1018.59 1018.63 1018.71 1018.71 1018.63 1018.47 1018.47 1018.43 1018.43 1018.39 1018.47 1018.67 1018.75 1018.79
1013.79 1014.15 1014.43 1014.63 1014.91 1015.23 1015.47 1015.67 1015.75 1015.83 1015.99 1016.11 1016.19 1016.23 1016.23 1016.35 1016.47 1016.59 1016.63 1016.63 1016.63 1016.63 1016.63 1016.75 1016.91 1017.15 1017.43 1017.55 1017.63 1017.67 1017.79 1017.91 1017.99 1018.03 1017.95 1017.91 1017.87 1017.99 1018.11 1018.23 1018.27 1018.47 1018.59 1018.63 1018.59 1018.39 1018.47 1018.47 1018.55 1018.63 1018.75 1018.83 1018.71 1018.59 1018.51 1018.47 1018.43 1018.55 1018.63 1018.67 1018.75 1018.83
1013.99 1014.31 1014.55 1014.71 1014.91 1015.27 1015.51 1015.75 1015.99 1016.11 1016.23 1016.31 1016.35 1016.35 1016.39 1016.43 1016.43 1016.47 1016.51 1016.51 1016.51 1016.55 1016.63 1016.79 1016.95 1017.11 1017.31 1017.51 1017.63 1017.71 1017.75 1017.91 1018.03 1017.95 1017.91 1017.95 1018.03 1018.03 1018.11 1018.23 1018.39 1018.51 1018.55 1018.55 1018.55 1018.59 1018.51 1018.43 1018.67 1018.79 1018.91 1018.95 1018.95 1018.79 1018.67 1018.63 1018.59 1018.59 1018.63 1018.59 1018.67 1018.67
1014.19 1014.31 1014.39 1014.71 1014.99 1015.19 1015.63 1015.99 1016.15 1016.15 1016.23 1016.43 1016.43 1016.43 1016.43 1016.47 1016.47 1016.51 1016.55 1016.51 1016.43 1016.39 1016.55 1016.83 1016.95 1017.07 1017.23 1017.35 1017.59 1017.75 1017.87 1017.91 1017.95 1017.91 1017.91 1017.99 1017.99 1018.03 1018.07 1018.15 1018.35 1018.35 1018.31 1018.55 1018.63 1018.63 1018.63 1018.51 1018.63 1019.11 1019.15 1019.19 1019.19 1019.07 1018.87 1018.79 1018.83 1018.87 1018.75 1018.63 1018.55 1018.63
1014.19 1014.31 1014.31 1014.39 1014.75 1015.11 1015.35 1015.51 1015.79 1016.19 1016.31 1016.51 1016.51 1016.43 1016.59 1016.59 1016.55 1016.59 1016.59 1016.59 1016.51 1016.47 1016.55 1016.67 1016.83 1016.95 1017.11 1017.31 1017.59 1017.83 1017.87 1017.87 1017.87 1017.99 1018.03 1018.03 1018.07 1018.07 1018.15 1018.27 1018.35 1018.55 1018.51 1018.55 1018.75 1018.79 1018.83 1018.67 1019.23 1019.55 1019.59 1019.51 1019.27 1019.23 1019.27 1019.19 1019.11 1018.91 1018.79 1018.79 1018.71 1018.71
1014.07 1014.27 1014.43 1014.47 1014.67 1015.07 1015.43 1015.59 1015.71 1016.19 1016.27 1016.51 1016.59 1016.55 1016.51 1016.63 1016.63 1016.71 1016.75 1016.67 1016.67 1016.63 1016.59 1016.63 1016.67 1016.83 1017.15 1017.31 1017.47 1017.71 1017.87 1017.87 1017.91 1018.03 1018.11 1018.19 1018.15 1018.23 1018.23 1018.23 1018.31 1018.35 1018.59 1018.71 1018.87 1018.79 1018.79 1018.63 1019.15 1019.75 1019.43 1019.51 1019.87 1019.75 1019.47 1019.43 1019.35 1019.19 1019.07 1018.95 1018.87 1018.91
1014.15 1014.27 1014.39 1014.43 1014.55 1014.95 1015.31 1015.63 1015.91 1016.11 1016.39 1016.31 1016.55 1016.67 1016.63 1016.71 1016.75 1016.75 1016.95 1016.91 1016.79 1016.71 1016.75 1016.75 1016.75 1016.83 1017.03 1017.23 1017.47 1017.67 1017.79 1017.87 1017.95 1018.07 1018.15 1018.27 1018.35 1018.39 1018.35 1018.31 1018.27 1018.31 1018.43 1019.23 1018.79 1018.75 1018.79 1018.87 1019.07 1019.51 1019.95 1019.75 1019.79 1019.75 1019.99 1019.71 1019.67 1019.47 1019.35 1019.19 1019.11 1019.19
1014.03 1014.23 1014.23 1014.39 1014.63 1014.99 1015.43 1015.87 1016.19 1016.43 1016.39 1016.59 1016.79 1016.79 1016.75 1016.95 1016.91 1016.83 1016.87 1016.95 1017.11 1016.99 1016.87 1016.87 1016.91 1016.95 1017.03 1017.19 1017.39 1017.47 1017.63 1017.83 1017.99 1018.11 1018.15 1018.23 1018.31 1018.39 1018.39 1018.39 1018.43 1018.51 1018.43 1018.51 1018.83 1018.91 1018.91 1018.91 1019.07 1018.95 1018.91 1019.83 1020.07 1020.11 1019.75 1019.79 1019.83 1019.75 1019.55 1019.43 1019.35 1019.31
1013.99 1014.19 1014.23 1014.51 1014.75 1015.07 1015.47 1015.87 1016.23 1016.47 1016.75 1016.91 1017.15 1017.11 1017.23 1017.23 1017.23 1017.07 1017.11 1017.15 1017.15 1017.11 1016.95 1016.95 1017.07 1017.11 1017.15 1017.23 1017.39 1017.51 1017.63 1017.83 1018.03 1018.19 1018.23 1018.31 1018.43 1018.55 1018.55 1018.55 1018.51 1018.51 1018.47 1018.59 1018.63 1018.99 1019.07 1019.03 1018.87 1018.87 1018.99 1019.15 1019.35 1019.47 1019.71 1019.79 1019.59 1020.07 1019.55 1019.43 1019.43 1019.51
1013.91 1014.15 1014.35 1014.71 1015.03 1015.35 1015.91 1016.15 1016.23 1016.35 1016.59 1016.83 1017.11 1017.27 1017.19 1017.31 1017.27 1017.35 1017.27 1017.19 1017.23 1017.15 1017.07 1017.03 1017.23 1017.23 1017.27 1017.31 1017.43 1017.55 1017.67 1017.79 1017.95 1018.11 1018.27 1018.39 1018.51 1018.55 1018.63 1018.67 1018.67 1018.63 1018.63 1018.63 1018.79 1019.07 1019.15 1019.11 1018.87 1019.03 1019.07 1019.15 1019.19 1019.27 1019.35 1019.47 1019.75 1019.83 1020.03 1019.67 1019.39 1019.55
1013.99 1014.15 1014.51 1014.99 1015.39 1015.63 1016.07 1016.47 1016.71 1016.87 1016.95 1017.07 1017.07 1017.15 1017.27 1017.47 1017.51 1017.43 1017.39 1017.47 1017.35 1017.35 1017.31 1017.31 1017.35 1017.39 1017.39 1017.39 1017.43 1017.63 1017.67 1017.79 1017.87 1018.03 1018.15 1018.31 1018.43 1018.51 1018.55 1018.67 1018.67 1018.71 1018.71 1018.71 1018.75 1019.03 1019.19 1019.03 1019.07 1019.15 1019.19 1019.23 1019.23 1019.31 1019.31 1019.23 1019.27 1019.35 1019.59 1019.99 1019.91 1019.63
1014.19 1014.43 1014.91 1015.27 1015.71 1016.07 1016.23 1016.63 1016.83 1017.03 1017.27 1017.39 1017.31 1017.35 1017.47 1017.55 1017.67 1017.63 1017.63 1017.71 1017.59 1017.59 1017.55 1017.55 1017.55 1017.51 1017.51 1017.47 1017.51 1017.63 1017.67 1017.79 1017.91 1018.07 1018.19 1018.35 1018.47 1018.55 1018.59 1018.67 1018.71 1018.75 1018.75 1018.83 1018.87 1018.99 1019.03 1019.11 1019.19 1019.23 1019.27 1019.43 1019.39 1019.39 1019.35 1019.43 1019.51 1019.39 1019.47 1019.99 1020.67 1020.39
1014.55 1014.87 1015.31 1015.67 1016.03 1016.35 1016.47 1016.67 1016.91 1017.07 1017.19 1017.59 1017.79 1017.79 1017.71 1017.75 1017.79 1017.79 1017.83 1017.91 1017.91 1017.83 1017.75 1017.75 1017.75 1017.71 1017.67 1017.71 1017.71 1017.67 1017.71 1017.79 1017.95 1018.11 1018.23 1018.39 1018.51 1018.59 1018.67 1018.71 1018.79 1018.79 1018.83 1018.91 1018.99 1018.95 1019.03 1019.15 1019.23 1019.23 1019.15 1019.19 1019.35 1019.43 1019.31 1019.35 1019.47 1019.55 1019.59 1019.75 1020.07 1020.43
1015.39 1015.63 1015.95 1016.11 1016.15 1016.27 1016.43 1016.43 1016.55 1016.83 1016.99 1017.39 1017.83 1017.79 1017.79 1017.95 1017.95 1017.95 1017.95 1018.07 1018.03 1018.07 1018.07 1017.99 1017.95 1017.95 1017.87 1017.79 1017.79 1017.79 1017.83 1017.95 1018.03 1018.15 1018.35 1018.51 1018.67 1018.83 1018.95 1018.99 1019.03 1018.95 1018.95 1018.95 1018.99 1019.07 1019.15 1019.27 1019.23 1019.23 1019.23 1019.19 1019.27 1019.27 1019.35 1019.83 1019.79 1019.75 1019.71 1019.95 1020.31 1020.35
1016.23 1016.23 1016.31 1016.43 1016.31 1016.19 1016.15 1016.23 1016.35 1016.51 1016.79 1017.11 1017.43 1017.63 1017.67 1017.79 1017.91 1017.95 1018.07 1018.11 1018.27 1018.27 1018.23 1018.23 1018.15 1018.07 1018.03 1017.95 1017.91 1017.99 1018.03 1018.07 1018.11 1018.23 1018.47 1018.63 1018.79 1018.91 1019.07 1019.15 1019.23 1019.27 1019.35 1019.43 1019.43 1019.35 1019.43 1019.39 1019.35 1019.39 1019.47 1019.39 1019.35 1019.43 1019.39 1019.59 1019.71 1019.87 1019.79 1019.83 1019.87 1020.31
1016.27 1016.03 1015.99 1016.11 1016.23 1016.23 1016.27 1016.35 1016.47 1016.59 1016.75 1016.99 1017.19 1017.35 1017.51 1017.67 1017.91 1017.95 1018.11 1018.19 1018.31 1018.31 1018.43 1018.35 1018.27 1018.19 1018.19 1018.11 1018.07 1018.11 1018.11 1018.15 1018.27 1018.35 1018.51 1018.63 1018.83 1018.91 1019.03 1019.15 1019.27 1019.43 1019.55 1019.55 1019.63 1019.59 1019.59 1019.79 1019.83 1019.67 1019.87 1020.11 1020.03 1019.91 1019.95 1020.07 1020.11 1020.19 1020.27 1020.27 1020.07 1020.19
1015.55 1015.19 1015.07 1015.35 1015.87 1016.27 1016.51 1016.55 1016.59 1016.63 1016.83 1016.99 1017.07 1017.19 1017.39 1017.51 1017.87 1018.03 1018.19 1018.19 1018.27 1018.39 1018.43 1018.39 1018.35 1018.27 1018.23 1018.23 1018.15 1018.11 1018.19 1018.27 1018.31 1018.43 1018.51 1018.67 1018.79 1018.95 1019.07 1019.23 1019.39 1019.51 1019.67 1019.91 1019.83 1019.79 1019.87 1020.03 1020.07 1020.19 1020.15 1019.95 1020.07 1020.07 1020.15 1020.23 1020.27 1020.27 1020.27 1020.19 1020.31 1020.39
1014.83 1015.03 1015.07 1015.35 1015.79 1016.19 1016.43 1016.51 1016.55 1016.71 1016.91 1017.15 1016.99 1017.11 1017.23 1017.43 1017.71 1017.99 1018.27 1018.31 1018.39 1018.55 1018.55 1018.55 1018.51 1018.43 1018.47 1018.35 1018.35 1018.35 1018.35 1018.39 1018.47 1018.51 1018.55 1018.63 1018.75 1018.87 1019.03 1019.23 1019.43 1019.63 1019.79 1019.91 1019.91 1019.99 1020.11 1020.07 1020.11 1020.19 1020.19 1020.27 1020.35 1020.47 1020.51 1020.55 1020.43 1020.47 1020.51 1020.51 1020.59 1020.71
1014.87 1015.35 1015.95 1016.03 1015.71 1015.67 1015.83 1016.03 1016.35 1016.71 1016.95 1017.27 1017.11 1017.07 1017.31 1017.51 1017.79 1017.99 1018.19 1018.31 1018.39 1018.55 1018.59 1018.63 1018.71 1018.75 1018.67 1018.59 1018.51 1018.55 1018.55 1018.55 1018.59 1018.59 1018.63 1018.71 1018.83 1018.95 1019.07 1019.19 1019.39 1019.51 1019.71 1019.91 1019.87 1020.03 1020.27 1020.23 1020.31 1020.35 1020.39 1020.51 1020.47 1020.67 1020.75 1020.71 1020.75 1020.75 1020.75 1020.75 1020.75 1020.83
1015.99 1015.75 1015.27 1015.35 1015.71 1015.75 1016.07 1016.31 1016.35 1016.59 1016.95 1017.31 1017.35 1017.11 1017.31 1017.59 1017.83 1017.99 1018.23 1018.35 1018.43 1018.51 1018.67 1018.79 1018.79 1018.91 1018.87 1018.91 1018.83 1018.75 1018.75 1018.79 1018.75 1018.75 1018.79 1018.83 1018.95 1019.07 1019.19 1019.31 1019.43 1019.55 1019.71 1019.87 1019.87 1020.07 1020.27 1020.31 1020.51 1020.55 1020.55 1020.51 1020.55 1020.63 1020.75 1020.87 1020.91 1020.95 1020.99 1021.03 1021.03 1020.99
Wind_Speed
7 7 6 6 5 5 7 11 8 9 9 9 9 12 12 12 10 9 8 8 6 4 3 3 4 4 7 3 5 5 6 7 8 8 8 8 7 6 6 5 4 3 2 4 4 5 5 6 7 6 6 5 5 5 5 5 4 3 3 3 3 3
7 7 6 5 4 4 5 7 4 5 5 7 8 9 6 5 7 3 8 6 3 3 3 3 3 5 3 3 3 5 6 8 7 8 7 7 7 6 5 4 3 2 1 2 4 3 3 4 6 7 6 5 2 2 4 5 4 4 3 3 2 3
9 8 7 6 5 5 4 4 3 4 4 6 7 6 4 5 4 4 4 4 3 3 3 3 3 4 3 4 2 4 6 8 8 8 7 6 7 6 5 4 3 2 1 1 1 2 2 2 2 6 4 2 1 0 3 4 4 4 4 3 3 5
10 9 7 5 4 4 4 3 3 4 4 4 4 5 5 5 4 4 4 4 3 2 2 2 5 9 7 3 1 3 6 7 8 9 9 5 6 5 6 5 3 3 2 1 1 1 2 2 2 4 2 1 1 1 3 5 5 5 5 3 4 7
7 6 6 6 5 5 4 3 4 4 4 4 4 4 5 4 4 5 4 4 3 2 1 1 1 2 3 2 2 1 1 2 1 2 5 2 2 2 3 2 1 1 0 0 2 2 2 3 2 3 1 1 0 1 2 3 5 5 4 4 4 7
6 6 7 6 6 6 6 6 4 4 4 4 5 5 4 4 4 4 4 4 3 2 1 0 1 2 3 2 2 1 2 2 2 2 2 3 3 3 3 3 2 1 1 1 2 2 1 1 3 2 1 1 0 1 3 3 4 5 5 4 4 9
7 6 7 7 6 6 5 5 4 4 5 4 4 5 5 4 4 4 4 4 3 2 2 1 1 2 2 2 2 2 3 3 2 3 2 4 3 3 3 2 1 1 0 1 2 3 3 2 1 1 1 1 1 1 3 4 4 5 5 4 5 9
8 7 7 7 7 5 5 5 4 5 4 5 5 5 4 4 4 4 4 4 4 3 3 3 3 3 3 2 3 3 3 2 2 2 2 2 3 2 1 0 0 0 0 1 2 3 3 3 2 1 0 1 2 2 3 4 4 4 4 4 4 8
8 8 7 7 6 4 4 3 2 4 4 5 4 4 4 4 4 3 3 4 4 4 3 3 3 3 2 3 3 3 3 2 1 1 1 1 1 0 0 0 1 1 1 2 2 3 3 3 3 2 1 1 3 3 3 3 4 4 3 5 5 6
9 8 7 6 5 5 4 4 3 3 4 5 4 4 4 4 4 4 3 3 4 4 4 4 3 2 3 4 4 4 1 1 1 1 2 2 1 2 2 1 1 1 1 2 2 2 3 5 4 3 2 1 3 4 4 5 5 5 5 5 5 4
9 8 7 6 6 5 5 5 4 4 4 4 4 4 3 4 4 3 4 4 3 3 3 2 3 2 2 3 1 3 3 2 1 1 1 2 1 2 2 2 2 1 1 1 3 3 3 4 4 4 3 1 2 3 5 4 4 4 4 5 4 3
9 8 7 6 6 6 6 5 4 4 3 4 4 3 3 3 4 3 3 3 2 2 2 2 3 3 4 2 3 3 3 2 1 1 1 1 1 1 1 0 0 0 1 2 2 3 2 3 5 4 1 2 2 3 4 4 4 4 3 2 3 3
8 7 7 7 6 5 5 4 4 3 3 3 3 3 2 2 2 3 2 2 2 2 2 3 3 4 4 2 3 3 2 3 1 1 2 2 2 2 1 1 1 0 0 2 3 3 2 1 2 2 1 1 3 4 4 4 5 4 4 3 3 3
7 7 6 5 4 5 4 3 3 3 3 4 3 3 2 1 2 3 3 2 2 2 3 3 3 3 2 3 2 2 3 2 2 2 2 3 3 2 1 0 1 0 2 2 2 2 1 3 3 3 3 2 3 3 5 5 5 5 4 4 4 3
6 6 5 5 5 4 3 4 4 4 3 3 3 4 3 2 3 2 4 4 4 1 1 3 3 4 2 3 3 2 2 2 1 2 3 3 3 1 1 1 0 0 1 1 1 1 2 3 2 4 3 2 3 3 2 3 3 3 4 3 3 3
7 7 6 6 4 4 4 3 4 4 4 3 4 4 4 3 3 2 3 3 5 4 3 2 2 3 3 1 2 2 1 1 1 1 2 2 2 3 1 0 0 1 1 2 2 3 2 4 3 4 3 4 4 3 4 2 1 4 3 4 4 3
9 8 7 6 5 4 4 4 4 4 4 3 3 3 3 3 3 3 2 4 4 6 6 5 3 4 3 0 1 2 1 1 0 0 2 2 2 3 2 0 1 3 3 1 2 4 4 4 4 3 3 4 3 3 4 3 3 1 2 4 4 4
7 6 6 7 6 5 4 4 4 4 3 3 2 2 3 4 3 3 3 2 2 3 3 2 2 4 3 3 2 2 1 0 0 0 0 1 3 2 1 2 2 2 3 1 2 5 4 3 3 4 4 4 3 4 4 4 4 3 2 2 2 3
7 6 6 6 6 6 6 5 5 4 4 2 2 2 2 2 3 4 4 4 4 4 3 2 2 3 3 3 2 1 1 2 2 2 2 2 2 0 2 3 3 3 4 2 1 2 4 4 4 3 4 3 2 3 4 4 3 4 3 2 2 2
6 6 6 6 6 6 5 5 6 4 4 3 3 3 2 2 2 4 3 3 3 3 3 3 4 4 4 3 3 2 2 1 2 3 3 3 1 2 3 4 3 3 2 1 2 0 2 3 4 4 2 3 3 2 4 3 4 4 3 2 2 2
7 7 8 7 5 6 5 4 3 3 4 1 3 3 3 1 2 2 3 2 1 0 2 4 3 4 4 3 3 2 1 2 3 2 3 2 1 2 2 3 4 2 3 2 0 1 1 3 5 2 2 2 2 2 2 2 2 2 3 3 3 1
7 6 7 8 7 5 4 5 5 4 3 2 3 5 3 2 2 3 3 3 2 2 2 1 3 3 3 3 3 3 2 3 3 3 1 0 1 2 3 4 3 2 1 2 2 2 1 2 2 2 1 0 1 1 2 3 1 1 0 0 2 2
8 8 6 7 8 7 3 4 5 4 5 3 1 1 3 2 3 5 4 3 4 4 3 2 1 3 4 3 4 4 2 1 2 1 1 2 1 2 2 4 3 4 2 1 2 0 1 1 4 1 1 2 0 0 1 2 2 2 1 0 1 1
7 7 7 6 6 5 6 6 5 6 3 4 4 2 4 3 3 5 5 3 4 5 4 3 3 3 3 3 4 5 3 2 2 1 2 1 0 1 2 3 2 2 5 1 1 1 2 3 4 5 1 2 2 2 0 2 1 1 1 0 1 3
9 8 7 7 7 7 8 7 6 5 5 7 4 4 5 5 3 3 4 5 3 3 4 4 4 3 3 3 4 5 4 3 3 2 3 3 2 3 2 1 1 2 3 5 2 1 2 3 3 1 5 3 2 0 2 1 1 1 1 2 2 2
7 6 8 7 8 8 7 8 7 7 6 5 5 4 5 5 3 4 4 1 3 2 4 5 4 4 4 4 4 4 3 4 4 4 3 2 1 1 1 1 1 2 1 0 3 3 2 2 0 2 4 3 2 2 1 1 1 1 1 0 1 2
8 6 7 7 7 8 7 6 6 7 7 7 6 1 1 1 4 2 3 4 3 4 4 6 4 4 5 5 5 5 5 5 4 4 3 4 3 2 2 2 1 1 0 2 3 2 3 1 1 1 3 3 3 1 2 1 1 1 1 1 2 3
6 7 6 7 6 7 8 5 5 5 5 6 5 5 4 2 1 3 5 3 4 4 4 4 5 4 4 5 6 6 6 5 5 4 4 4 3 3 3 3 2 2 1 1 3 5 3 2 2 0 2 1 2 2 1 1 1 1 3 3 2 3
7 7 7 7 7 5 7 7 7 6 4 1 3 4 3 2 3 2 5 3 4 3 4 4 3 4 4 4 5 6 6 5 6 4 4 5 3 3 3 4 3 3 3 3 3 2 3 2 1 1 2 1 2 2 3 3 1 2 2 3 2 2
6 6 7 6 6 5 6 7 7 6 7 4 2 3 3 3 3 3 4 3 3 4 3 4 4 4 4 4 4 4 5 6 5 4 4 4 4 4 3 4 3 4 4 5 3 3 3 1 2 2 2 4 2 1 3 3 4 3 4 3 4 1
5 7 5 5 6 8 7 8 8 8 9 8 5 4 5 3 3 3 4 2 3 2 2 3 3 3 3 4 4 4 5 4 4 4 5 5 4 4 4 4 3 4 4 5 4 5 4 3 3 4 3 4 3 3 3 2 1 3 2 2 3 2
9 7 5 2 5 7 8 7 7 9 9 9 8 6 6 6 4 4 4 3 1 2 2 1 2 3 3 3 4 4 4 4 5 5 6 5 4 5 4 4 5 5 5 4 4 5 4 5 5 6 4 3 4 4 4 5 4 3 4 3 4 2
7 6 5 4 6 5 5 5 6 7 7 8 8 7 6 6 4 4 4 4 3 3 1 2 2 4 3 4 4 5 4 5 4 4 5 5 4 5 5 5 5 5 5 5 4 4 6 4 4 6 5 3 5 5 5 4 4 3 3 4 4 3
9 10 10 10 7 5 4 4 4 6 6 7 7 7 6 7 5 3 4 4 4 5 4 4 4 4 4 4 4 4 4 4 4 4 5 5 5 4 5 6 5 6 5 3 4 5 5 4 5 4 3 6 5 6 5 3 3 4 3 3 4 2
12 9 8 7 7 7 5 5 4 5 6 4 7 7 6 6 6 4 3 3 3 3 4 3 4 3 1 2 4 4 4 5 4 4 5 5 6 6 6 6 5 5 4 4 5 6 4 5 6 5 5 5 5 5 4 3 4 4 3 4 3 1
8 4 6 3 8 10 10 9 8 7 7 4 4 6 5 4 4 3 4 4 4 4 3 3 3 1 1 1 4 3 3 4 4 4 4 5 4 5 4 6 5 5 5 3 6 6 4 6 5 5 4 4 6 4 3 4 4 3 4 3 4 3
9 9 14 12 8 4 3 7 8 7 6 4 5 8 8 6 6 4 4 4 4 4 2 2 3 1 1 0 1 2 3 3 4 4 4 4 4 4 4 4 5 5 5 4 6 5 4 6 4 4 4 4 5 4 2 2 3 4 3 3 3 2
Wind_Direction
147 143 142 142 144 143 150 151 151 147 140 137 134 137 139 136 138 139 133 120 89 75 75 87 103 113 127 101 127 137 149 152 156 155 155 156 154 157 154 147 132 119 73 67 68 60 54 52 51 46 57 59 55 93 126 128 129 132 136 152 151 186
144 147 144 141 141 144 148 151 146 141 136 137 136 135 127 127 125 111 129 109 90 95 88 96 108 124 108 132 138 151 158 163 164 165 165 163 163 163 159 150 134 117 79 54 51 61 42 36 48 54 61 64 32 74 136 135 132 139 146 155 153 213
154 149 144 141 143 149 141 141 139 122 130 138 144 121 104 104 79 92 81 87 90 93 108 105 110 131 123 129 155 161 172 172 173 176 176 168 167 167 163 149 151 146 96 27 46 61 51 36 30 60 56 60 48 350 148 133 136 148 154 164 162 208
156 149 146 140 131 130 145 138 127 118 114 111 96 103 94 104 96 95 97 96 94 105 104 151 164 162 148 116 125 171 182 178 184 183 180 173 172 171 172 170 176 175 132 13 23 39 35 7 21 71 45 60 27 359 157 158 154 155 155 173 174 209
148 138 135 144 145 151 145 143 138 128 117 99 104 96 99 98 109 109 107 99 97 94 69 33 20 73 95 119 85 199 187 168 177 180 166 137 145 197 164 158 172 145 83 339 333 331 8 347 13 66 30 72 313 20 169 156 151 151 164 178 184 200
144 140 149 150 155 161 160 168 162 140 117 104 114 105 100 104 105 109 110 111 97 89 80 13 42 89 93 120 140 142 191 193 178 156 139 161 177 185 174 179 161 148 310 349 325 329 327 339 332 45 70 86 302 34 149 163 153 159 175 179 190 195
146 144 150 155 157 167 171 179 161 141 130 130 123 118 113 108 107 117 121 126 126 140 145 195 125 112 128 157 164 156 192 202 178 158 171 168 192 201 196 171 136 155 60 313 295 297 299 287 267 305 109 129 231 157 159 172 167 168 179 181 191 196
152 155 156 162 165 168 170 175 166 159 127 146 133 127 120 120 120 118 136 139 145 158 175 185 177 145 173 183 184 186 197 193 166 184 184 185 177 227 224 79 150 128 170 272 290 294 301 299 302 274 120 157 199 176 177 174 175 179 178 180 192 196
158 159 158 159 159 161 163 159 151 131 138 151 129 139 135 132 132 142 143 147 156 163 188 194 174 159 165 191 193 194 200 153 112 156 142 151 135 182 346 337 294 290 298 292 286 295 310 303 297 281 233 155 187 185 187 167 175 180 185 191 197 200
163 161 158 156 152 150 166 166 165 148 158 151 146 145 146 151 148 148 159 169 166 170 182 188 165 152 172 199 198 203 128 72 134 134 137 148 166 169 208 222 251 268 284 280 295 290 283 293 295 289 279 175 177 196 184 174 174 184 190 196 199 204
162 158 153 153 152 158 163 176 171 154 166 137 142 145 147 149 151 157 166 173 171 175 171 175 142 158 226 218 185 55 63 91 82 106 133 128 67 194 198 213 211 231 257 258 247 271 274 276 290 292 283 179 187 176 182 180 175 175 193 199 190 191
158 151 147 147 161 160 170 175 169 150 145 117 132 130 145 144 156 152 162 166 165 167 162 172 151 177 207 200 72 80 70 85 69 52 93 118 88 47 95 61 43 79 220 239 273 284 298 283 285 289 302 145 147 180 172 171 171 174 210 218 186 188
145 141 142 154 161 163 159 158 151 151 117 121 117 128 143 160 127 143 163 159 149 163 166 170 175 184 207 115 92 94 92 86 94 77 86 102 88 41 32 15 349 50 349 284 298 316 330 285 287 303 46 115 159 169 163 166 172 171 190 188 201 202
134 138 145 148 147 154 154 137 117 99 115 99 106 114 128 102 125 126 135 149 136 157 149 149 156 182 157 119 123 127 129 114 135 137 117 111 101 131 133 107 266 14 281 252 271 311 12 30 14 53 74 98 105 146 162 169 179 181 177 185 184 183
136 134 140 154 159 151 136 138 122 107 93 108 109 111 111 114 108 121 126 138 139 114 269 167 163 158 131 135 134 117 114 192 166 138 113 130 138 153 183 207 194 185 317 326 101 43 96 78 53 56 44 40 74 88 124 176 179 173 181 180 172 190
135 140 152 160 150 139 139 119 114 122 103 108 115 118 131 139 128 144 152 129 130 158 208 222 184 114 105 90 124 117 157 186 213 110 120 139 137 175 223 227 350 141 95 45 96 55 52 81 73 74 45 57 52 61 76 56 159 199 183 162 179 179
148 152 155 146 124 121 117 117 114 108 115 118 122 125 133 119 126 149 128 148 130 155 196 190 191 105 116 101 76 111 169 188 265 125 105 152 172 188 179 190 35 23 60 141 95 107 70 75 82 69 67 62 45 59 55 45 29 17 155 183 180 179
144 146 151 146 141 128 112 101 91 101 105 104 111 119 116 115 137 132 136 234 128 148 166 191 88 89 115 141 128 112 146 139 17 44 78 211 211 207 107 91 59 31 26 31 134 114 112 108 98 90 80 77 49 58 46 44 25 27 102 147 190 195
135 140 136 127 114 102 97 82 80 87 89 85 75 78 108 104 143 128 151 169 164 162 158 149 110 103 107 116 119 122 153 155 146 176 197 240 242 250 97 98 133 84 38 46 123 130 145 135 110 94 91 73 65 58 44 33 44 52 62 113 170 209
131 135 125 113 111 104 96 105 108 103 91 78 75 98 71 153 159 150 156 157 159 155 148 136 116 114 121 125 135 160 180 147 159 181 192 205 148 157 157 121 102 111 102 43 48 40 121 113 78 68 56 48 46 79 60 42 28 27 17 52 89 146
145 147 140 130 128 130 117 95 68 89 116 100 118 106 86 62 87 83 81 73 57 47 99 113 133 135 145 152 136 150 177 200 204 206 199 211 149 157 139 128 137 149 162 138 86 341 357 81 98 34 15 34 40 15 101 86 89 30 15 348 360 34
144 145 145 145 143 136 150 159 147 160 136 117 117 117 102 67 76 61 68 85 71 59 65 98 133 141 131 120 126 121 150 202 207 207 207 126 148 130 125 132 135 89 354 131 131 178 292 101 51 168 174 354 343 15 95 111 135 198 206 311 319 337
146 142 143 142 138 144 130 133 132 146 144 107 10 54 104 88 86 83 56 69 90 84 79 53 107 145 122 125 132 132 144 159 193 196 152 113 131 124 141 151 162 156 133 74 130 53 1 53 123 310 169 94 296 145 316 35 15 26 6 271 304 355
145 146 144 142 126 109 108 94 87 115 98 107 138 105 78 60 81 83 74 80 59 83 87 78 67 102 119 126 119 117 140 129 127 66 110 135 155 147 154 167 151 169 119 347 342 5 19 47 118 167 84 213 185 138 260 244 152 294 324 21 100 56
154 157 145 130 121 119 106 91 92 82 93 84 60 65 72 42 36 89 85 61 60 87 96 86 78 89 109 101 113 129 127 123 109 102 118 126 185 210 210 224 144 173 162 163 142 138 51 66 96 200 151 113 22 35 222 219 90 273 354 94 27 89
149 151 134 129 132 130 131 131 125 117 112 103 115 111 123 138 118 101 110 114 66 72 96 83 78 89 99 107 100 105 107 106 92 80 93 99 109 81 66 90 261 165 144 212 144 134 117 48 211 71 83 131 160 173 179 218 105 151 322 55 123 97
157 148 127 129 134 126 125 138 144 144 145 151 146 211 188 181 133 129 95 82 68 49 66 93 74 84 100 102 103 100 104 102 99 94 101 102 96 117 129 148 160 62 201 132 117 100 128 200 319 51 65 65 69 43 167 120 148 113 98 310 28 81
153 138 128 131 136 139 138 135 127 129 140 147 159 160 156 155 102 119 79 59 65 46 45 65 93 89 103 109 109 104 103 100 93 95 94 94 110 113 93 76 95 101 78 113 121 129 137 187 181 298 66 56 48 30 44 104 142 153 160 127 342 338
141 125 124 133 135 143 137 144 142 138 127 141 141 138 128 93 90 69 80 45 61 48 50 45 58 90 84 96 101 114 111 105 101 97 101 99 88 87 102 111 99 79 84 59 74 115 121 208 167 170 113 89 74 70 57 62 57 74 110 97 359 35
133 114 123 125 129 131 138 142 141 146 138 136 114 83 79 91 76 65 82 62 64 66 61 57 48 61 85 83 98 102 100 101 102 98 88 92 88 78 76 86 98 112 103 84 57 84 115 140 110 124 113 147 112 67 37 28 27 40 53 76 164 167
80 77 82 106 138 152 161 160 156 155 147 147 154 141 121 88 88 81 102 79 82 77 59 92 80 60 81 99 91 90 95 94 87 84 83 77 75 81 61 66 62 74 75 94 99 93 82 59 74 76 74 102 121 141 140 106 41 43 91 100 69 27
56 74 84 105 154 169 167 166 156 155 153 156 155 156 153 155 154 142 141 140 88 74 65 48 86 97 88 93 97 86 87 86 89 91 87 93 89 83 75 69 63 63 62 55 58 73 72 75 76 81 67 66 97 108 113 138 160 139 128 167 126 151
108 131 134 162 179 179 161 156 155 155 154 156 156 153 154 151 162 154 154 141 133 146 162 111 148 121 156 138 122 110 107 106 98 101 110 99 100 98 94 83 80 75 71 68 71 79 74 54 52 73 80 46 57 54 52 28 67 102 45 82 117 114
161 172 170 163 162 146 140 144 150 154 161 161 156 153 155 155 166 161 163 161 167 174 186 192 183 177 178 157 126 132 128 125 127 125 118 115 109 102 96 95 91 87 82 90 85 80 85 81 71 71 76 71 53 61 52 52 89 82 100 71 46 106
159 176 168 155 128 136 147 153 153 158 163 182 159 157 159 156 157 162 180 167 185 192 193 219 212 219 213 137 130 121 130 131 136 130 123 116 115 110 109 102 101 106 101 100 89 91 83 89 83 77 67 84 79 52 52 52 71 71 100 101 123 152
166 93 56 112 164 159 167 162 155 160 178 193 175 150 146 143 151 169 177 180 192 199 217 213 252 280 243 147 140 136 122 132 136 127 121 120 116 110 111 110 108 105 99 104 98 94 108 96 95 96 100 95 78 60 46 57 62 72 68 106 102 96
134 181 180 191 191 165 117 148 156 160 161 180 184 161 154 167 179 178 180 196 194 203 212 216 234 243 226 318 119 136 126 123 133 134 129 130 124 118 112 107 111 106 105 94 98 110 115 101 112 107 90 90 108 100 59 101 82 76 82 71 82 98